Home   Weather   Abidjan   Past weeks

Flag for Cote d'Ivoire (Ivory Coast) Past Weather in Abidjan, Cote d'Ivoire (Ivory Coast) — Yesterday and Last 2 Weeks

Now
81 °F

Broken clouds.


Feels Like: 86 °F
Forecast: N/A
Wind: 10 mph from Southwest

Location: Abidjan Airport

Current Time: Sep 20, 2017 at 6:25:54 pm

Latest Report: Sep 20, 2017 at 6:00 pm


Visibility: 5 mi

Pressure: 29.86 "Hg

Humidity: 84%

Dew Point: 75 °F

Location of AbidjanLocation

Past Weather in Abidjan — Graph

°F

Abidjan Temperature Yesterday

Maximum temperature yesterday: 82 °F (at 3:00 pm)
Minimum temperature yesterday: 75 °F (at 3:30 am)
Average temperature yesterday: 79 °F

High & Low Weather Summary for the Past Weeks

 TemperatureHumidityPressure
High84 °F (Sep 9, 12:00 pm)100% (Sep 6, 12:00 am)30.07 "Hg (Sep 6, 12:00 am)
Low73 °F (Sep 8, 6:00 am)66% (Sep 13, 1:30 pm)29.83 "Hg (Sep 11, 4:30 pm)
Average78 °F88%29.93 "Hg
* Reported Sep 5 5:00 pm — Sep 20 5:00 pm, Abidjan. Weather by CustomWeather, © 2017

Note: Actual official high and low records may vary slightly from our data, if they occured in-between our weather recording intervals... More about our weather records

Advertising

Abidjan Weather History for the Previous 24 Hours

Scroll right to see more
 ConditionsComfort  
Time TempWeatherWind HumidityBarometerVisibility
5:00 pm
Wed, Sep 20
81 °FScattered clouds.13 mph84%29.86 "HgN/A
4:30 pm82 °FScattered clouds.13 mph79%29.86 "HgN/A
4:00 pm82 °FScattered clouds.14 mph79%29.86 "HgN/A
3:30 pm82 °FPartly sunny.14 mph74%29.86 "HgN/A
3:00 pm82 °FPartly sunny.15 mph79%29.86 "HgN/A
2:30 pm82 °FPartly sunny.14 mph79%29.89 "HgN/A
2:00 pm82 °FPartly sunny.14 mph74%29.89 "HgN/A
1:30 pm82 °FPartly sunny.12 mph79%29.92 "HgN/A
1:00 pm82 °FScattered clouds.12 mph74%29.92 "HgN/A
12:30 pm84 °FScattered clouds.13 mph74%29.92 "HgN/A
12:00 pm82 °FBroken clouds.12 mph74%29.95 "HgN/A
11:30 am82 °FBroken clouds.10 mph79%29.95 "HgN/A
11:00 am82 °FBroken clouds.12 mph74%29.98 "Hg5 mi
10:30 am82 °FBroken clouds.12 mph74%29.98 "Hg5 mi
10:00 am82 °FScattered clouds.12 mph74%29.95 "Hg5 mi
9:30 am81 °FScattered clouds.12 mph84%29.95 "Hg5 mi
9:00 am79 °FBroken clouds.8 mph89%29.95 "Hg5 mi
8:30 am79 °FBroken clouds.7 mph89%29.95 "Hg5 mi
8:00 am79 °FBroken clouds.8 mph89%29.95 "Hg5 mi
7:30 am79 °FBroken clouds.7 mph89%29.95 "Hg5 mi
7:00 am77 °FBroken clouds.5 mph94%29.92 "Hg5 mi
6:30 am77 °FBroken clouds.6 mph94%29.92 "Hg5 mi
6:00 am77 °FPartly cloudy.5 mph94%29.92 "Hg5 mi
5:30 am77 °FPartly cloudy.6 mph94%29.89 "Hg5 mi
5:00 am77 °FPartly cloudy.6 mph94%29.89 "Hg5 mi
4:30 am77 °FPassing clouds.6 mph94%29.89 "Hg5 mi
4:00 am77 °FPartly cloudy.5 mph94%29.89 "Hg5 mi
3:30 am77 °FPartly cloudy.6 mph89%29.89 "Hg5 mi
3:00 am77 °FPartly cloudy.6 mph89%29.89 "Hg5 mi
2:30 am77 °FPassing clouds.6 mph89%29.89 "Hg5 mi
2:00 am77 °FPassing clouds.7 mph89%29.89 "Hg5 mi
1:30 am77 °FPassing clouds.5 mph94%29.89 "Hg5 mi
1:00 am77 °FPassing clouds.7 mph89%29.92 "Hg5 mi
12:30 am77 °FPartly cloudy.8 mph94%29.92 "Hg5 mi
12:00 am77 °FPartly cloudy.6 mph94%29.92 "Hg5 mi
11:30 pm
Tue, Sep 19
77 °FPartly cloudy.6 mph94%29.92 "Hg5 mi
11:00 pm77 °FPartly cloudy.6 mph94%29.95 "Hg5 mi
10:30 pm77 °FPassing clouds.5 mph89%29.95 "Hg5 mi
10:00 pm77 °FPassing clouds.6 mph89%29.92 "Hg5 mi
9:30 pm77 °FPassing clouds.5 mph89%29.92 "Hg5 mi
9:00 pm79 °FPassing clouds.7 mph84%29.92 "Hg5 mi
8:30 pm79 °FPartly cloudy.6 mph89%29.92 "Hg5 mi
8:00 pm79 °FPartly cloudy.7 mph84%29.92 "Hg5 mi
7:30 pm79 °FPartly cloudy.7 mph84%29.89 "Hg5 mi
7:00 pm79 °FPartly cloudy.9 mph84%29.89 "Hg5 mi
6:30 pm79 °FPartly cloudy.8 mph84%29.89 "Hg5 mi
6:00 pm79 °FBroken clouds.9 mph84%29.89 "Hg5 mi
Weather by CustomWeather, © 2017

See weather overviewHow to use our weather pages